Location: ?
(35.3436°N, 139.3168°E)
Time: 21:29:18
(UTC+00:00)

Cosmos 614 Rocket - Pass Details

Date: 29 October 2020
Orbit: 734 x 763 km, 74.1° (Epoch: 24 November)

Event Time Altitude Azimuth Distance (km) Brightness Sun altitude
Rises 19:49:52 0° 209° (SSW) 3,190 7.0 -15.3°
Reaches altitude 10° 19:52:17 10° 214° (SW) 2,265 6.2 -14.8°
Maximum altitude 19:57:16 51° 290° (WNW) 939 4.1 -13.8°
Drops below altitude 10° 20:02:15 10° 6° (N) 2,259 6.4 -12.8°
Sets 20:04:40 0° 12° (NNE) 3,182 7.3 -12.3°
